Location: Lancaster
(34.6980°N, 118.1360°W)
Time: 01:45:50
(UTC-07:00)

ISS - Visible Passes

Search period start: 05 October 2022 00:00
Search period end: 15 October 2022 00:00
Orbit: 415 x 419 km, 51.6° (Epoch: 05 October)

Date Brightness Start Highest point End Pass type
(mag) Time Alt. Az. Time Alt. Az. Time Alt. Az.
05 Oct -3.8 19:17:24 10° NW 19:20:45 71° NE 19:23:29 14° SE visible
06 Oct -1.0 20:06:39 10° W 20:08:53 17° SW 20:10:50 11° SSW visible
07 Oct -2.0 19:17:33 10° WNW 19:20:34 31° SW 19:23:34 10° SSE visible
